This is the latest recevied weather packets stored in our database for station/object K7KAR-2. If no packets are shown the sender has not sent any weather packets the latest 10 day(s).
| Time | Temp. | Humidity | Pressure | Rain* | Wind** | Luminosity | Snow |
|---|---|---|---|---|---|---|---|
| 1777745917 | 16.11° C | 14% | 1018.2 hPa | 0 mm | - | 760 W/m² | - |
| 1777745616 | 16.67° C | 15% | 1018 hPa | 0 mm | - | 838 W/m² | - |
| 1777745314 | 16.67° C | 15% | 1018.2 hPa | 0 mm | - | 871 W/m² | - |
| 1777745011 | 16.67° C | 16% | 1018.6 hPa | 0 mm | - | 601 W/m² | - |
| 1777744706 | 16.11° C | 16% | 1018.5 hPa | 0 mm | - | 697 W/m² | - |
| 1777744401 | 16.11° C | 16% | 1018.2 hPa | 0 mm | - | 796 W/m² | - |
| 1777744098 | 16.11° C | 16% | 1018.4 hPa | 0 mm | - | 874 W/m² | - |
| 1777743795 | 16.11° C | 16% | 1018.2 hPa | 0 mm | - | 858 W/m² | - |
| 1777743491 | 15.56° C | 17% | 1018.2 hPa | 0 mm | - | 831 W/m² | - |
| 1777743189 | 15.56° C | 17% | 1018.6 hPa | 0 mm | - | 830 W/m² | - |
| 1777742887 | 16.11° C | 17% | 1018.5 hPa | 0 mm | - | 812 W/m² | - |
| 1777742583 | 15.56° C | 17% | 1018.4 hPa | 0 mm | - | 838 W/m² | - |
| 1777742279 | 15.56° C | 17% | 1018.7 hPa | 0 mm | - | 855 W/m² | - |
| 1777741976 | 15.56° C | 17% | 1018.6 hPa | 0 mm | - | 806 W/m² | - |
| 1777741673 | 15.56° C | 17% | 1018.1 hPa | 0 mm | - | 740 W/m² | - |
| 1777741369 | 15.56° C | 17% | 1018.4 hPa | 0 mm | - | 742 W/m² | - |
| 1777741066 | 15.56° C | 16% | 1018.4 hPa | 0 mm | - | 772 W/m² | - |
| 1777740763 | 15° C | 17% | 1018.4 hPa | 0 mm | - | 766 W/m² | - |
| 1777740459 | 15° C | 16% | 1018.4 hPa | 0 mm | - | 746 W/m² | - |
| 1777740157 | 15.56° C | 15% | 1018.4 hPa | 0 mm | - | 847 W/m² | - |
| 1777739852 | 15° C | 16% | 1018.4 hPa | 0 mm | - | 780 W/m² | - |
| 1777739549 | 15° C | 15% | 1018.2 hPa | 0 mm | - | 750 W/m² | - |
| 1777739246 | 15° C | 15% | 1018.4 hPa | 0 mm | - | 721 W/m² | - |
| 1777738942 | 15° C | 14% | 1018.2 hPa | 0 mm | - | 941 W/m² | - |
| 1777738639 | 15.56° C | 14% | 1018.1 hPa | 0 mm | - | 908 W/m² | - |
* Rain latest hour (hover to see other rain measurements)
** Current wind speed in m/s (hover to see current wind gust speed)